Location: Unspecified
(0.0000°N, 0.0000°E)
Time: 23:16:43
(UTC+00:00)

Hubble Space Telescope - Pass Details

Date: 19 January 2022
Orbit: 534 x 538 km, 28.5° (Epoch: 27 January)

Event Time Altitude Azimuth Distance (km) Brightness Sun altitude
Rises 20:26:53 0° 234° (SW) 2,670 5.4 -31.7°
Reaches altitude 10° 20:29:10 10° 230° (SW) 1,779 4.2 -32.2°
Enters shadow 20:30:24 19° 226° (SW) 1,312 3.3 -32.5°
